Date String (YYYY-MM-DD hh:mm:ss) UTC,Instrument flags,Ambient pressure (hPa),Sample flow (lpm),Bypass flow (lpm),Sample temperature (°C),Ambient temperature (°C),ASC tube jacket temperature (°C),LED temperature (°C),Box temperature (°C),Sample RH (%),Span deviation,Mass concentration (μg/m³),Mass concentration (μg/m³),Mass concentration (μg/m³)
DateTimeUTC,F1_M11,P_M11,Q1_M11,Q2_M11,T1_M11,T2_M11,T3_M11,T4_M11,T5_M11,U1_M11,ZSPAN_M11,X0_M11,X2_M11,X1_M11
2022-06-25 14:00:00,,0835.7,5.01,0.00,30.0,29.0,00.0,38.9,31.9,20.8,0000.0,0004.51,0001.91,0001.18
2022-06-25 14:01:00,,0835.7,4.98,0.00,30.0,29.0,00.0,38.9,31.9,20.8,0000.0,0004.31,0001.87,0001.19
2022-06-25 14:02:00,,0835.8,5.00,0.00,30.0,29.0,00.0,38.9,31.9,20.9,0000.0,0004.73,0001.85,0001.18
2022-06-25 14:03:00,,0835.8,5.00,0.00,30.0,29.0,00.0,38.9,31.9,21.0,0000.0,0004.78,0001.81,0001.18
2022-06-25 14:04:00,,0835.8,5.01,0.00,30.0,29.0,00.0,38.9,31.9,21.0,0000.0,0004.89,0001.79,0001.18
2022-06-25 14:05:00,,0835.8,5.00,0.00,30.0,29.0,00.0,38.9,31.9,21.0,0000.0,0004.94,0001.80,0001.18
2022-06-25 14:06:00,,0835.8,4.99,0.00,30.1,29.0,00.0,38.9,31.9,20.8,0000.0,0004.90,0001.79,0001.18
2022-06-25 14:07:00,,0835.7,4.98,0.00,30.1,29.0,00.0,38.9,31.9,20.9,0000.0,0004.62,0001.75,0001.18
2022-06-25 14:08:00,,0835.8,5.00,0.00,30.1,29.0,00.0,38.9,31.9,20.9,0000.0,0004.07,0001.71,0001.17
2022-06-25 14:09:00,,0835.8,5.00,0.00,30.1,29.0,00.0,38.9,31.9,20.9,0000.0,0003.86,0001.63,0001.16
2022-06-25 14:10:00,,0835.8,5.00,0.00,30.1,29.0,00.0,38.9,31.9,20.9,0000.0,0003.83,0001.64,0001.16
2022-06-25 14:11:00,,0835.7,5.00,0.00,30.1,29.0,00.0,38.9,31.9,20.7,0000.0,0003.95,0001.69,0001.16
2022-06-25 14:12:00,,0835.8,5.00,0.00,30.1,29.0,00.0,38.9,31.9,20.7,0000.0,0004.24,0001.70,0001.16
2022-06-25 14:13:00,,0835.8,4.99,0.00,30.1,29.0,00.0,38.9,31.9,20.6,0000.0,0003.98,0001.71,0001.16
2022-06-25 14:14:00,,0835.8,4.99,0.00,30.1,29.0,00.0,38.9,31.9,20.7,0000.0,0003.59,0001.72,0001.17
2022-06-25 14:15:00,,0835.8,5.00,0.00,30.1,29.0,00.0,38.9,31.9,20.5,0000.0,0003.57,0001.79,0001.17
2022-06-25 14:16:00,,0835.8,5.01,0.00,30.1,29.1,00.0,38.9,31.9,20.5,0000.0,0003.67,0001.80,0001.17
2022-06-25 14:17:00,,0835.9,4.99,0.00,30.1,29.1,00.0,38.9,31.9,20.5,0000.0,0003.88,0001.80,0001.17
2022-06-25 14:18:00,,0835.9,5.00,0.00,30.1,29.1,00.0,39.0,32.0,20.5,0000.0,0004.10,0001.84,0001.17
2022-06-25 14:19:00,,0835.9,5.00,0.00,30.1,29.1,00.0,39.0,32.0,20.4,0000.0,0004.21,0001.89,0001.18
2022-06-25 14:20:00,,0835.9,5.01,0.00,30.1,29.1,00.0,39.0,32.0,20.4,0000.0,0004.22,0001.91,0001.18
2022-06-25 14:21:00,,0835.9,5.00,0.00,30.1,29.1,00.0,39.0,32.0,20.5,0000.0,0004.23,0001.90,0001.18
2022-06-25 14:22:00,,0835.9,5.00,0.00,30.1,29.1,00.0,39.0,32.0,20.5,0000.0,0004.72,0001.86,0001.17
2022-06-25 14:23:00,,0835.8,4.99,0.00,30.1,29.1,00.0,39.0,32.0,20.3,0000.0,0005.04,0001.82,0001.16
2022-06-25 14:24:00,,0835.8,5.00,0.00,30.1,29.1,00.0,39.0,32.0,20.4,0000.0,0004.93,0001.82,0001.16
2022-06-25 14:25:00,,0835.7,5.01,0.00,30.1,29.1,00.0,39.0,32.0,20.5,0000.0,0005.62,0001.79,0001.16
2022-06-25 14:26:00,,0835.7,5.00,0.00,30.2,29.1,00.0,39.0,32.0,20.5,0000.0,0006.23,0001.73,0001.16
2022-06-25 14:27:00,,0835.8,5.00,0.00,30.2,29.1,00.0,39.0,32.0,20.6,0000.0,0006.23,0001.75,0001.16
2022-06-25 14:28:00,,0835.8,5.00,0.00,30.2,29.1,00.0,39.0,32.0,20.5,0000.0,0006.45,0001.81,0001.16
2022-06-25 14:29:00,,0835.8,5.01,0.00,30.2,29.1,00.0,39.0,32.0,20.2,0000.0,0006.31,0001.78,0001.16
2022-06-25 14:30:00,,0835.8,5.01,0.00,30.2,29.1,00.0,39.0,32.0,20.2,0000.0,0006.33,0001.78,0001.15
2022-06-25 14:31:00,,0835.8,4.99,0.00,30.2,29.1,00.0,39.0,32.0,20.1,0000.0,0006.61,0001.84,0001.16
2022-06-25 14:32:00,,0835.8,5.00,0.00,30.2,29.1,00.0,39.0,32.0,20.3,0000.0,0007.06,0001.85,0001.15
2022-06-25 14:33:00,,0835.9,5.01,0.00,30.2,29.1,00.0,39.0,32.0,20.3,0000.0,0006.51,0001.86,0001.15
2022-06-25 14:34:00,,0835.9,4.99,0.00,30.2,29.1,00.0,39.0,32.0,20.1,0000.0,0006.00,0001.90,0001.16
2022-06-25 14:35:00,,0835.9,4.99,0.00,30.2,29.2,00.0,39.0,32.0,20.3,0000.0,0006.28,0001.95,0001.16
2022-06-25 14:36:00,,0835.9,5.00,0.00,30.2,29.2,00.0,39.0,32.0,20.3,0000.0,0005.42,0001.96,0001.16
2022-06-25 14:37:00,,0835.8,5.01,0.00,30.2,29.2,00.0,39.0,32.0,20.3,0000.0,0004.81,0001.97,0001.15
2022-06-25 14:38:00,,0835.9,5.00,0.00,30.2,29.2,00.0,39.0,32.0,20.3,0000.0,0004.86,0001.96,0001.15
2022-06-25 14:39:00,,0835.9,4.99,0.00,30.2,29.2,00.0,39.1,32.0,20.3,0000.0,0004.44,0001.92,0001.15
2022-06-25 14:40:00,,0835.9,5.00,0.00,30.2,29.2,00.0,39.1,32.0,20.3,0000.0,0004.26,0001.89,0001.14
2022-06-25 14:41:00,,0835.9,5.01,0.00,30.2,29.2,00.0,39.1,32.0,20.4,0000.0,0004.16,0001.86,0001.15
2022-06-25 14:42:00,,0835.9,5.00,0.00,30.2,29.2,00.0,39.1,32.0,20.2,0000.0,0004.00,0001.85,0001.15
2022-06-25 14:43:00,,0835.9,5.00,0.00,30.2,29.2,00.0,39.1,32.1,20.2,0000.0,0003.61,0001.87,0001.16
2022-06-25 14:44:00,,0835.9,4.99,0.00,30.2,29.2,00.0,39.1,32.1,20.1,0000.0,0003.58,0001.85,0001.16
2022-06-25 14:45:00,,0835.9,5.01,0.00,30.2,29.2,00.0,39.1,32.1,20.1,0000.0,0003.51,0001.82,0001.15
2022-06-25 14:46:00,,0835.9,5.00,0.00,30.3,29.2,00.0,39.1,32.1,20.3,0000.0,0003.19,0001.79,0001.15
2022-06-25 14:47:00,,0835.9,5.00,0.00,30.3,29.2,00.0,39.1,32.1,20.3,0000.0,0003.22,0001.78,0001.14
2022-06-25 14:48:00,,0835.9,4.99,0.00,30.3,29.2,00.0,39.1,32.1,20.1,0000.0,0003.13,0001.77,0001.15
2022-06-25 14:49:00,,0835.9,5.00,0.00,30.3,29.2,00.0,39.1,32.1,20.1,0000.0,0003.00,0001.77,0001.15
2022-06-25 14:50:00,,0835.9,5.01,0.00,30.3,29.2,00.0,39.1,32.1,19.9,0000.0,0002.91,0001.75,0001.15
2022-06-25 14:51:00,,0835.9,5.00,0.00,30.3,29.2,00.0,39.1,32.1,19.9,0000.0,0002.94,0001.72,0001.14
2022-06-25 14:52:00,,0835.9,5.01,0.00,30.3,29.2,00.0,39.1,32.1,19.9,0000.0,0003.08,0001.74,0001.13
2022-06-25 14:53:00,,0835.9,5.00,0.00,30.3,29.2,00.0,39.1,32.1,19.9,0000.0,0003.36,0001.73,0001.13
2022-06-25 14:54:00,,0835.9,5.00,0.00,30.3,29.2,00.0,39.1,32.1,19.9,0000.0,0003.68,0001.71,0001.12
2022-06-25 14:55:00,,0835.9,5.01,0.00,30.3,29.2,00.0,39.1,32.1,20.0,0000.0,0003.79,0001.72,0001.11
2022-06-25 14:56:00,,0835.9,5.00,0.00,30.3,29.2,00.0,39.1,32.1,20.1,0000.0,0004.05,0001.74,0001.11
2022-06-25 14:57:00,,0835.9,4.99,0.00,30.3,29.3,00.0,39.1,32.1,20.0,0000.0,0004.19,0001.74,0001.11
2022-06-25 14:58:00,,0835.9,5.00,0.00,30.3,29.3,00.0,39.2,32.1,20.0,0000.0,0004.87,0001.76,0001.12
2022-06-25 14:59:00,,0835.9,5.00,0.00,30.3,29.3,00.0,39.2,32.1,20.0,0000.0,0004.98,0001.75,0001.12
